Location: Newark
(40.7830°N, 8.7430°E)
Time: 06:29:41
(UTC+00:00)

ISS - Pass Details

Date: 24 September 2019
Orbit: 411 x 421 km, 51.6° (Epoch: 22 October)

Event Time Altitude Azimuth Distance (km) Brightness Sun altitude
Rises 19:18:23 0° 286° (WNW) 2,342 1.5 -22.9°
Reaches altitude 10° 19:21:08 10° 310° (NW) 1,481 0.0 -23.4°
Maximum altitude 19:23:10 15° 348° (NNW) 1,212 -1.1 -23.7°
Enters shadow 19:23:44 15° 0° (N) 1,235 -1.2 -23.8°
